Regional Weather Roundup
Issued by NWS Little Rock, AR

Home | Current Version | Previous Version | Graphics & Text | Print | Product List | Glossary On
Versions: 1 2 3 4 5 6 7 8 9 10 11 12 13 14 15 16 17 18 19 20 21 22 23 24 25 26 27 28 29 30 31 32 33 34 35 36 37 38 39 40 41 42 43 44 45 46 47 48 49 50
000
ASUS44 KLZK 071005
RWRLZK

WEATHER ROUNDUP FOR ARKANSAS
NATIONAL WEATHER SERVICE LITTLE ROCK AR
500 AM CDT THU MAY 07 2015

NOTE: "FAIR" INDICATES FEW OR NO CLOUDS BELOW 12,000 FEET WITH NO
SIGNIFICANT WEATHER AND/OR OBSTRUCTIONS TO VISIBILITY.

ARZ001-003-010-029-071100-
NORTHWEST ARKANSAS

CITY           SKY/WX    TMP DP  RH WIND       PRES   REMARKS
FAYETTEVILLE   MOCLDY    68  62  81 S10       29.93S
FORT SMITH     CLOUDY    68  60  75 E3        29.92S
HARRISON       MOCLDY    65  57  75 SE13      29.96F
BENTONVILLE    MOCLDY   N/A N/A N/A S12       29.93S
ROGERS         MOCLDY    68  59  73 S10       29.94S
SILOAM SPGS    CLOUDY    68  55  64 S13       29.92F
HIGHFILL       MOCLDY    68  58  70 S12       29.92S
$$

ARZ004-005-016-071100-
NORTH CENTRAL ARKANSAS

CITY           SKY/WX    TMP DP  RH WIND       PRES   REMARKS
BATESVILLE     MOCLDY    66  54  63 CALM      30.01R
FLIPPIN        MOCLDY    63  55  77 CALM      29.97F
MTN HOME       MOCLDY    64  54  69 SE3       29.98F
$$

ARZ040-041-071100-
WEST CENTRAL ARKANSAS

CITY           SKY/WX    TMP DP  RH WIND       PRES   REMARKS
MENA           MOCLDY    72  66  83 S3        29.98R
MOUNT IDA      MOCLDY    72  61  68 VRB5      29.96S
$$

ARZ009-017-025-026-028-071100-
NORTHEAST ARKANSAS

CITY           SKY/WX    TMP DP  RH WIND       PRES   REMARKS
CORNING          N/A     66  55  68 SE7       30.02S
JONESBORO      MOCLDY    62  56  80 CALM      30.02S
NEWPORT          N/A     65  56  72 MISG        N/A
WALNUT RIDGE   PTCLDY    66  54  63 S9        30.01S
BLYTHEVILLE    MOCLDY    66  58  75 S7        30.04S
$$

ARZ022-023-033-042-044-071100-
CENTRAL ARKANSAS

CITY           SKY/WX    TMP DP  RH WIND       PRES   REMARKS
LITTLE ROCK    CLOUDY    64  58  80 CALM      30.00R
N LITTLE ROCK    N/A     66  60  81 SE3       30.00R
JACKSONVILLE   MOCLDY    60  58  92 E2        29.99S
SEARCY         MOCLDY    60  58  92 CALM      30.02R
HOT SPRINGS    CLOUDY    71  59  65 S6        29.98F
RUSSELLVILLE   MOCLDY    68  59  73 CALM      29.96F
CLINTON        MOCLDY    59  59 100 CALM      30.01F
$$

ARZ036-071100-
EAST ARKANSAS

CITY           SKY/WX    TMP DP  RH WIND       PRES   REMARKS
WEST MEMPHIS   MOCLDY    68  59  73 SE9       30.02S
$$

ARZ050-053-066-070-073-071100-
SOUTHWEST ARKANSAS

CITY           SKY/WX    TMP DP  RH WIND       PRES   REMARKS
ARKADELPHIA    FAIR      67  64  90 CALM      29.99S
CAMDEN         CLOUDY    64  59  82 CALM      29.98F
TEXARKANA      MOCLDY    67  64  90 S6        29.96S
EL DORADO      MOCLDY    64  61  90 CALM      29.99F
DE QUEEN       CLOUDY    69  65  86 CALM      29.95R
$$

ARZ056-057-069-071100-
SOUTHEAST ARKANSAS

CITY           SKY/WX    TMP DP  RH WIND       PRES   REMARKS
PINE BLUFF     MOCLDY    64  60  87 E3        30.01R
STUTTGART      PTCLDY    66  57  72 SE7       30.01S
MONTICELLO     MOCLDY    69  64  84 S7        30.01R

$$





USA.gov is the U.S. government's official web portal to all federal, state and local government web resources and services.